User: anonymous   Login
Location: Unspecified
(0.0000°N, 0.0000°E)
Time: 12:32:49
(UTC+00:00)
Language:

Landsat 5 - Orbit

View from above orbital plane
View from above orbital plane
View from above satellite
View from above satellite

Ground track
Ground track

The orbit data is extracted from the following two-line orbital elements,

1 14780U 84021A   18021.40688250 +.00000458 +00000-0 +48256-4 0  9996
2 14780 098.0567 142.8846 0091011 170.1836 190.1187 14.91657034808405
Epoch (UTC): 21 January 2018 09:45:54
Eccentricity: 0.0091011
inclination: 98.0567°
perigee height: 529 km
apogee height: 656 km
right ascension of ascending node: 142.8846°
argument of perigee: 170.1836°
revolutions per day: 14.91657034
mean anomaly at epoch: 190.1187°
orbit number at epoch: 80840

The dashed part of the orbit path shows where the satellite is in the earth's shadow,  

DLR